Location: Bettgenhausen
(50.6463°N, 7.5681°E)
Time: 15:19:41
(UTC+00:00)

Terra - Pass Details

Date: 27 February 2020
Orbit: 701 x 703 km, 98.2° (Epoch: 28 March)

Event Time Altitude Azimuth Distance (km) Brightness Sun altitude
Exits shadow 19:57:27 13° 19° (NNE) 1,993 4.2 -27.4°
Drops below altitude 10° 19:58:09 10° 13° (NNE) 2,183 4.4 -27.5°
Sets 20:00:56 0° 356° (N) 3,106 5.5 -27.9°
